GFSFLT2_500_temp_192.txt.gz
Temp
-13 -13 -13 -13 -13 -13 -13 -12 -12 -12 -12 -12 -13 -13 -13 -13 -13 -13 -13 -13 -13 -13 -12 -12 -12 -12 -12
-13 -13 -13 -13 -13 -13 -13 -13 -13 -13 -13 -13 -13 -13 -13 -13 -13 -13 -13 -13 -13 -13 -13 -13 -13 -12 -12
-13 -14 -14 -14 -14 -14 -14 -13 -13 -13 -13 -13 -14 -14 -13 -14 -14 -14 -14 -14 -14 -13 -13 -13 -13 -13 -13
-15 -15 -15 -15 -15 -14 -15 -14 -14 -14 -14 -14 -14 -14 -14 -14 -14 -14 -15 -15 -15 -15 -14 -14 -14 -14 -13
-17 -16 -16 -16 -16 -16 -15 -16 -15 -15 -15 -15 -15 -15 -15 -15 -15 -15 -15 -16 -16 -15 -15 -15 -15 -15 -14
-17 -17 -17 -17 -18 -18 -17 -16 -16 -17 -17 -16 -15 -15 -16 -16 -16 -16 -16 -16 -16 -16 -16 -16 -16 -15 -15
-19 -19 -19 -19 -20 -19 -18 -18 -17 -17 -17 -17 -17 -17 -16 -17 -17 -17 -17 -17 -17 -17 -17 -17 -16 -16 -16
-25 -25 -24 -24 -24 -24 -23 -22 -21 -19 -19 -18 -20 -19 -18 -17 -18 -18 -19 -18 -18 -18 -17 -17 -17 -17 -16
-28 -28 -27 -27 -27 -27 -27 -27 -27 -26 -25 -22 -22 -22 -20 -19 -19 -19 -20 -19 -19 -19 -18 -18 -18 -17 -17
-30 -30 -30 -29 -29 -28 -28 -27 -27 -26 -26 -27 -26 -26 -24 -22 -21 -21 -21 -21 -20 -20 -19 -19 -18 -18 -18
-32 -32 -32 -31 -31 -30 -30 -29 -28 -28 -27 -26 -26 -26 -26 -25 -24 -23 -22 -22 -21 -21 -20 -20 -19 -19 -19
-32 -33 -32 -32 -31 -31 -31 -30 -30 -29 -29 -28 -27 -26 -26 -26 -25 -25 -24 -23 -22 -22 -21 -21 -20 -20 -19
-33 -33 -33 -33 -32 -32 -31 -31 -31 -30 -30 -29 -28 -27 -27 -26 -25 -25 -25 -24 -23 -22 -21 -21 -21 -20 -20
-33 -33 -33 -33 -33 -33 -32 -32 -31 -31 -31 -30 -29 -29 -28 -27 -27 -26 -25 -25 -24 -23 -23 -22 -21 -21 -21
-34 -33 -33 -33 -33 -33 -33 -32 -32 -32 -31 -31 -30 -29 -29 -28 -27 -27 -26 -25 -25 -24 -23 -23 -22 -22 -21
-35 -34 -34 -34 -34 -34 -33 -33 -32 -32 -32 -31 -31 -30 -29 -28 -28 -27 -27 -26 -26 -25 -24 -24 -23 -23 -22
-36 -36 -35 -34 -34 -34 -34 -33 -33 -33 -33 -32 -31 -30 -30 -29 -29 -28 -27 -26 -26 -26 -25 -25 -24 -23 -23

GFSFLT2_500_temp_195.txt.gz
Temp
-13 -13 -13 -13 -13 -13 -13 -13 -13 -12 -13 -12 -12 -13 -13 -13 -13 -13 -13 -13 -13 -13 -12 -13 -13 -13 -12
-14 -14 -14 -14 -14 -14 -14 -14 -13 -13 -13 -13 -13 -13 -13 -13 -13 -13 -13 -13 -14 -14 -13 -13 -13 -13 -13
-14 -15 -14 -14 -15 -15 -15 -15 -15 -14 -14 -14 -13 -13 -13 -13 -14 -14 -14 -14 -14 -14 -14 -14 -13 -13 -13
-16 -16 -16 -16 -16 -16 -16 -16 -15 -15 -15 -15 -15 -14 -14 -14 -14 -14 -14 -14 -15 -15 -15 -15 -14 -14 -14
-16 -16 -16 -16 -16 -16 -16 -16 -16 -16 -16 -16 -16 -15 -15 -15 -15 -15 -15 -15 -15 -15 -15 -15 -15 -15 -14
-17 -18 -18 -19 -19 -19 -18 -18 -17 -17 -17 -17 -17 -16 -16 -16 -16 -16 -16 -16 -15 -16 -16 -16 -16 -16 -15
-23 -23 -23 -22 -23 -24 -25 -25 -24 -24 -23 -21 -20 -19 -18 -17 -17 -17 -17 -17 -16 -17 -17 -17 -16 -16 -16
-27 -27 -26 -26 -26 -27 -27 -27 -27 -27 -27 -26 -26 -26 -24 -22 -20 -19 -19 -18 -18 -18 -17 -17 -17 -17 -17
-28 -29 -29 -29 -29 -29 -29 -29 -29 -28 -28 -27 -27 -26 -26 -26 -25 -24 -22 -21 -20 -19 -18 -18 -18 -18 -17
-30 -30 -30 -31 -31 -31 -31 -31 -31 -30 -30 -29 -28 -28 -27 -26 -25 -26 -25 -24 -23 -22 -20 -20 -19 -19 -19
-31 -31 -32 -33 -33 -33 -32 -32 -32 -31 -31 -31 -29 -29 -28 -27 -26 -26 -25 -25 -25 -23 -22 -22 -21 -20 -20
-32 -33 -34 -34 -34 -34 -33 -32 -32 -32 -31 -31 -30 -30 -30 -29 -28 -27 -26 -25 -25 -24 -23 -22 -22 -21 -21
-33 -33 -34 -35 -34 -34 -34 -33 -32 -32 -32 -31 -31 -31 -30 -30 -29 -28 -27 -26 -25 -25 -24 -23 -22 -22 -22
-33 -34 -34 -34 -34 -34 -34 -34 -33 -33 -32 -32 -32 -31 -31 -30 -29 -29 -28 -27 -26 -25 -25 -24 -23 -23 -22
-34 -34 -34 -34 -34 -34 -34 -34 -33 -33 -33 -33 -32 -32 -31 -31 -30 -29 -29 -28 -27 -27 -26 -25 -24 -24 -23
-35 -35 -35 -35 -35 -35 -34 -34 -34 -34 -34 -33 -33 -32 -32 -31 -31 -30 -30 -29 -28 -27 -27 -26 -25 -24 -24
-36 -36 -36 -36 -36 -36 -36 -35 -35 -34 -34 -33 -33 -32 -32 -31 -31 -31 -30 -29 -29 -28 -27 -27 -26 -25 -24

GFSFLT2_500_temp_198.txt.gz
Temp
-13 -14 -14 -13 -14 -14 -14 -14 -13 -13 -14 -13 -13 -13 -14 -13 -13 -13 -13 -13 -13 -13 -13 -13 -13 -13 -13
-14 -14 -14 -14 -14 -14 -14 -14 -14 -14 -14 -14 -14 -14 -14 -14 -14 -13 -13 -13 -13 -13 -13 -13 -13 -13 -13
-15 -15 -15 -15 -15 -15 -15 -14 -15 -15 -15 -15 -14 -14 -14 -14 -14 -14 -14 -14 -14 -14 -14 -14 -13 -14 -14
-16 -15 -15 -15 -15 -15 -15 -15 -15 -15 -15 -15 -16 -16 -15 -15 -15 -14 -14 -14 -14 -14 -14 -15 -14 -14 -14
-16 -15 -15 -15 -15 -15 -15 -15 -16 -16 -16 -16 -16 -16 -16 -17 -17 -16 -15 -15 -15 -15 -15 -15 -15 -15 -14
-16 -16 -16 -17 -19 -19 -20 -20 -20 -21 -21 -20 -21 -21 -21 -21 -19 -18 -17 -17 -16 -16 -15 -16 -16 -16 -15
-19 -20 -22 -24 -24 -25 -25 -25 -25 -25 -25 -24 -26 -26 -26 -26 -25 -24 -23 -20 -19 -18 -17 -17 -17 -17 -16
-25 -26 -27 -28 -28 -29 -28 -28 -28 -28 -28 -27 -28 -28 -28 -27 -26 -25 -24 -25 -24 -21 -20 -18 -18 -18 -17
-28 -29 -29 -30 -30 -30 -30 -30 -30 -29 -30 -30 -29 -29 -29 -29 -29 -28 -26 -25 -25 -25 -24 -22 -20 -19 -19
-30 -31 -31 -30 -31 -31 -32 -32 -32 -30 -31 -31 -30 -30 -30 -30 -30 -29 -28 -27 -26 -25 -25 -25 -23 -21 -20
-31 -31 -31 -31 -31 -32 -33 -33 -33 -33 -33 -32 -31 -32 -32 -31 -30 -30 -29 -28 -27 -26 -25 -25 -24 -23 -22
-31 -31 -32 -32 -32 -33 -33 -34 -34 -34 -34 -33 -32 -32 -32 -32 -31 -30 -30 -29 -28 -27 -26 -25 -25 -24 -23
-32 -32 -32 -32 -33 -33 -34 -34 -34 -35 -34 -34 -33 -32 -32 -31 -31 -30 -30 -29 -28 -28 -27 -26 -25 -25 -24
-33 -33 -33 -33 -34 -34 -34 -34 -34 -35 -34 -34 -34 -32 -32 -32 -31 -31 -31 -30 -29 -29 -28 -27 -26 -25 -25
-33 -33 -33 -34 -35 -35 -35 -35 -35 -34 -34 -34 -34 -33 -33 -32 -32 -31 -31 -31 -30 -29 -28 -28 -27 -26 -25
-34 -34 -34 -34 -35 -36 -36 -36 -36 -35 -35 -35 -34 -34 -34 -33 -32 -32 -31 -31 -31 -30 -29 -28 -28 -26 -26
-34 -35 -35 -35 -35 -36 -36 -36 -36 -36 -36 -35 -35 -34 -34 -33 -33 -32 -32 -32 -31 -30 -30 -29 -28 -27 -27

GFSFLT2_500_temp_204.txt.gz
Temp
-15 -15 -15 -15 -15 -14 -15 -15 -16 -16 -16 -15 -15 -15 -15 -15 -15 -15 -14 -14 -14 -14 -14 -13 -13 -13 -13
-16 -16 -16 -16 -16 -16 -16 -16 -16 -17 -17 -17 -17 -16 -16 -16 -16 -16 -15 -15 -15 -14 -14 -14 -14 -14 -13
-17 -17 -17 -18 -18 -17 -17 -17 -17 -17 -17 -17 -17 -17 -17 -17 -17 -16 -16 -16 -16 -15 -15 -14 -14 -14 -14
-18 -18 -18 -18 -18 -18 -18 -18 -18 -18 -18 -18 -18 -18 -17 -17 -17 -17 -17 -16 -16 -16 -16 -15 -15 -14 -14
-19 -19 -19 -19 -19 -19 -19 -19 -19 -19 -19 -18 -18 -18 -18 -18 -17 -17 -17 -17 -17 -17 -16 -16 -16 -15 -15
-19 -19 -19 -19 -19 -19 -19 -19 -19 -19 -20 -20 -20 -20 -21 -21 -21 -21 -20 -19 -18 -18 -17 -17 -17 -16 -16
-20 -20 -19 -20 -20 -20 -21 -22 -22 -23 -24 -23 -25 -25 -26 -26 -27 -26 -26 -25 -24 -24 -24 -23 -22 -20 -19
-21 -21 -23 -23 -24 -25 -26 -27 -27 -28 -28 -28 -29 -28 -28 -29 -29 -29 -28 -28 -28 -27 -27 -26 -26 -25 -23
-25 -27 -28 -28 -29 -29 -29 -30 -29 -30 -30 -30 -30 -30 -30 -30 -31 -30 -30 -29 -29 -29 -29 -28 -27 -27 -26
-28 -30 -31 -30 -31 -31 -31 -31 -31 -31 -31 -31 -31 -31 -31 -31 -32 -32 -32 -31 -31 -30 -30 -29 -28 -28 -28
-30 -31 -32 -32 -32 -33 -33 -32 -32 -32 -32 -32 -32 -32 -32 -31 -32 -34 -33 -33 -32 -32 -32 -30 -30 -29 -29
-31 -32 -32 -32 -33 -33 -33 -33 -33 -33 -33 -33 -33 -33 -33 -33 -33 -34 -34 -34 -33 -32 -32 -32 -31 -30 -29
-33 -33 -33 -33 -33 -33 -33 -33 -33 -34 -34 -33 -33 -33 -33 -33 -33 -34 -34 -34 -33 -32 -32 -31 -30 -30 -29
-34 -34 -34 -34 -33 -34 -34 -34 -34 -34 -34 -34 -34 -34 -34 -34 -34 -34 -33 -33 -33 -32 -31 -31 -30 -30 -29
-34 -34 -34 -34 -34 -34 -34 -34 -34 -35 -35 -35 -35 -35 -35 -34 -34 -34 -33 -33 -33 -32 -32 -31 -30 -30 -29
-35 -34 -34 -34 -34 -35 -35 -34 -35 -35 -35 -35 -35 -35 -35 -35 -34 -34 -34 -33 -33 -32 -32 -31 -30 -30 -29
-35 -35 -35 -35 -35 -35 -35 -35 -35 -35 -35 -35 -35 -35 -36 -36 -35 -34 -33 -33 -33 -32 -32 -31 -31 -30 -30